[[{"header":{"parameterUnit":"m.s-1","parameterCategory":1,"la1":30.2991,"la2":30.254,"lo1":-89.0895,"lo2":-89.0444,"dy":0.0017,"dx":0.0017,"nx":28,"ny":28,"refTime":"2025-11-12T09:00:00:Z","depth":0,"parameterNumber":2,"parameterNumberName":"U-component_of_WINDS"},"data":[0,0,0,0,0,0,0,0,0,0,0,0,0,0,0,0,0,0,0,0,0,0,0,0,0,0,0,0,0,0,0,0,0,0,0,0,0,0,0,0,0,0,0,0,0,0,0,0,0,0,0,0,0,0,0,0,0,0,1.3187,1.3187,0,1.3261,1.3262,1.3263,1.323,1.3228,1.3227,1.3225,1.3304,1.3308,1.3312,0,0,0,0,0,0,0,0,0,0,0,0,0,1.3016,1.302,1.3186,1.3187,1.3188,1.3261,1.3262,1.3263,1.3231,1.3228,1.3226,1.3224,1.3303,1.3307,1.3312,0,0,0,0,0,0,0,0,0,0,0,0,0,1.3091,1.3021,1.3186,1.3181,1.3181,1.3261,1.3262,1.3263,1.3231,1.3228,1.3226,1.3223,1.3301,1.3307,1.3313,1.3403,0,0,1.333,1.3333,0,0,0,0,0,0,0,0,1.3087,1.3097,1.3181,1.3181,1.3182,1.3234,1.3231,1.331,1.3232,1.3212,1.3225,1.3222,1.3283,1.329,1.331,1.3407,1.341,1.3331,1.3334,1.3337,1.3338,0,0,0,0,0,0,0,1.3081,1.3094,1.3216,1.3182,1.3183,1.3175,1.3182,1.3246,1.3262,1.3214,1.3211,1.3221,1.3283,1.3305,1.3312,1.3411,1.333,1.3336,1.3339,1.3341,1.3583,1.3585,0,0,0,0,0,0,1.3076,1.309,1.3214,1.3218,1.3126,1.318,1.3189,1.322,1.3261,1.3265,1.3223,1.3219,1.3296,1.3305,1.3315,1.3421,1.3337,1.3342,1.3345,1.358,1.3583,1.3586,0,0,0,0,0,0,1.3073,1.3088,1.3211,1.3153,1.3168,1.3186,1.3221,1.3223,1.3245,1.3268,1.3271,1.3242,1.3295,1.3307,1.338,1.3423,1.3344,1.335,1.3576,1.3581,1.3585,1.3635,0,0,0,0,0,0,1.3068,1.3086,1.3121,1.3154,1.3172,1.3275,1.3224,1.3226,1.3254,1.325,1.3287,1.3291,1.3293,1.3372,1.3386,1.343,1.3354,1.3572,1.3578,1.3583,1.363,1.3641,1.365,0,0,0,0,0,1.3062,1.3133,1.3123,1.3138,1.3215,1.3278,1.3288,1.3288,1.3258,1.3292,1.3307,1.329,1.3416,1.338,1.3395,1.3441,1.357,1.3577,1.3583,1.3625,1.3639,1.365,0,0,0,0,0,0,1.3106,1.3138,1.3126,1.3211,1.3242,1.3272,1.3316,1.3303,1.3344,1.3338,1.3338,1.3346,1.3422,1.3439,1.3398,1.3529,1.3488,1.3499,1.3515,1.3528,1.3538,1.3532,1.3359,0,0,0,0,0,1.3125,1.3173,1.3199,1.3271,1.3286,1.3299,1.3326,1.3323,1.3356,1.3369,1.3389,1.3422,1.3469,1.35,1.3544,1.3633,1.3639,1.3672,1.3682,1.369,1.3698,1.3744,1.3758,1.3608,1.3608,1.3608,0,0,1.3166,1.3189,1.322,1.328,1.3303,1.3353,1.331,1.3365,1.3401,1.3378,1.3447,1.3464,1.35,1.358,1.3617,1.3597,1.3741,1.3699,1.3705,1.3709,1.3752,1.3766,1.3779,1.3613,1.3612,1.3611,0,0,1.3265,1.3289,1.3349,1.3373,1.3409,1.3416,1.3431,1.3463,1.3472,1.3542,1.3525,1.3568,1.365,1.3675,1.3699,1.3805,1.379,1.382,1.3873,1.3917,1.3929,1.394,1.3975,1.3988,1.3829,1.3829,1.3829,0,1.3312,1.3384,1.3383,1.3438,1.3464,1.3444,1.3505,1.3529,1.3578,1.3596,1.3573,1.3672,1.3696,1.3781,1.3806,1.3827,1.3843,1.3815,1.3928,1.3938,1.3948,1.3982,1.3995,1.3832,1.3832,1.3831,1.3831,0,1.3438,1.3489,1.3534,1.358,1.3611,1.367,1.3676,1.3708,1.3703,1.3712,1.3783,1.381,1.3858,1.3878,1.3875,1.3962,1.3949,1.3927,1.3885,1.3965,1.3997,1.401,1.3837,1.3836,1.3835,1.3834,0,0,1.3568,1.361,1.3626,1.3645,1.3682,1.3722,1.3778,1.3824,1.3851,1.3885,1.3931,1.4,1.3979,1.4006,1.4005,1.4044,1.4123,1.4017,1.4017,1.4033,1.4218,1.4233,1.4248,1.4113,1.4116,1.4118,1.4215,0,1.3667,1.3765,1.3764,1.3855,1.3901,1.3881,1.393,1.3958,1.3968,1.4009,1.4021,1.4068,1.4038,1.4053,1.4091,1.4105,1.416,1.4098,1.4156,1.4158,1.4145,1.4265,1.4282,1.4372,1.4227,1.423,1.4231,0,1.3797,1.3833,1.3928,1.3955,1.3974,1.4018,1.4059,1.4098,1.4129,1.4134,1.4162,1.4155,1.4211,1.4169,1.4247,1.4205,1.4228,1.4239,1.4242,1.4246,1.4198,1.4271,1.4401,1.4414,1.4251,1.425,1.4248,0,1.3878,1.3951,1.4016,1.4034,1.4068,1.4099,1.4115,1.4143,1.417,1.4206,1.4223,1.4266,1.4289,1.4322,1.4326,1.4295,1.4403,1.4362,1.4408,1.4408,1.443,1.4429,1.4564,1.4449,1.4449,1.4448,1.4448,0,1.3989,1.4047,1.4053,1.4093,1.4157,1.4155,1.4219,1.4232,1.4257,1.4299,1.4286,1.4325,1.4328,1.4369,1.4373,1.4435,1.4446,1.4451,1.4451,1.4451,1.445,1.4465,1.4458,1.4452,1.4451,1.4451,1.445,0,1.409,1.4097,1.4166,1.4192,1.42,1.4246,1.4269,1.4307,1.4315,1.4368,1.438,1.4394,1.4441,1.4448,1.4504,1.4506,1.458,1.4574,1.4569,1.4567,1.4612,1.4607,1.4761,1.478,1.4654,1.4655,1.4656,0,1.4159,1.4203,1.4233,1.426,1.4277,1.432,1.4347,1.4347,1.4375,1.4412,1.4445,1.449,1.4527,1.4603,1.4617,1.4659,1.4654,1.4704,1.466,1.4658,1.4652,1.4648,1.4652,1.4713,1.4714,1.4715,1.4716,0,1.428,1.4281,1.4319,1.4358,1.439,1.4421,1.445,1.4473,1.4477,1.4509,1.4556,1.4584,1.464,1.4684,1.4725,1.4742,1.4729,1.473,1.4742,1.4742,1.4736,1.4738,1.459,1.4726,1.4725,1.4724,1.4724,1.4724,1.4366,1.4403,1.4429,1.4472,1.4493,1.4521,1.4556,1.4568,1.4607,1.4651,1.465,1.4701,1.4729,1.4782,1.4802,1.4842,1.4825,1.4844,1.4848,1.4852,1.4855,1.4731,1.485,1.4849,1.4849,1.4849,1.4849,0,1.4484,1.4499,1.4539,1.4579,1.4612,1.4596,1.4628,1.4656,1.4701,1.4728,1.4763,1.4816,1.4859,1.4876,1.4918,1.4947,1.4942,1.4957,1.4954,1.4958,1.4869,1.4853,1.4961,1.496,1.496,1.496,1.496,1.496,1.4549,1.461,1.4613,1.4684,1.4699,1.4748,1.4767,1.4792,1.4813,1.4872,1.4907,1.4918,1.494,1.4983,1.5021,1.5025,1.5041,1.5058,1.506,1.4976,1.4965,1.4954,1.4939,1.5062,1.5062,1.5145,1.5146,1.5146]},{"header":{"parameterUnit":"m.s-1","parameterCategory":1,"la1":30.2991,"la2":30.254,"lo1":-89.0895,"lo2":-89.0444,"dy":0.0017,"dx":0.0017,"nx":28,"ny":28,"refTime":"2025-11-12T09:00:00:Z","depth":0,"parameterNumber":3,"parameterNumberName":"V-component_of_WINDS"},"data":[0,0,0,0,0,0,0,0,0,0,0,0,0,0,0,0,0,0,0,0,0,0,0,0,0,0,0,0,0,0,0,0,0,0,0,0,0,0,0,0,0,0,0,0,0,0,0,0,0,0,0,0,0,0,0,0,0,0,2.8651,2.8649,0,2.8517,2.8515,2.8514,2.8365,2.8363,2.836,2.8358,2.8221,2.8219,2.8218,0,0,0,0,0,0,0,0,0,0,0,0,0,2.8776,2.8775,2.8651,2.8649,2.8647,2.8517,2.8515,2.8513,2.8365,2.8363,2.836,2.8357,2.8221,2.822,2.8218,0,0,0,0,0,0,0,0,0,0,0,0,0,2.869,2.8774,2.8651,2.8558,2.8548,2.8517,2.8515,2.8513,2.8366,2.8362,2.8359,2.8356,2.8222,2.822,2.8217,2.8268,0,0,2.821,2.8209,0,0,0,0,0,0,0,0,2.8695,2.8686,2.8573,2.8564,2.8553,2.8454,2.8509,2.8431,2.8367,2.8435,2.8358,2.8355,2.8301,2.8292,2.8274,2.8261,2.8255,2.821,2.8208,2.8207,2.8206,0,0,0,0,0,0,0,2.8701,2.8691,2.8598,2.8572,2.856,2.8522,2.8506,2.8493,2.8388,2.8429,2.8418,2.8404,2.8295,2.8277,2.827,2.8253,2.821,2.8207,2.8206,2.8205,2.8272,2.8275,0,0,0,0,0,0,2.8722,2.8697,2.8602,2.8594,2.8618,2.8522,2.8505,2.8489,2.8388,2.8369,2.8407,2.8397,2.8283,2.8273,2.8264,2.8314,2.8207,2.8205,2.8203,2.8268,2.8272,2.8276,0,0,0,0,0,0,2.8725,2.8715,2.8607,2.8642,2.8625,2.8524,2.8508,2.8488,2.847,2.8371,2.8351,2.8408,2.828,2.8268,2.8267,2.8307,2.8204,2.8201,2.8265,2.827,2.8274,2.8416,0,0,0,0,0,0,2.8729,2.8717,2.8735,2.8644,2.8624,2.8614,2.851,2.8488,2.8466,2.8453,2.8367,2.8349,2.8276,2.8272,2.8265,2.8302,2.82,2.826,2.8267,2.8272,2.8407,2.8425,2.844,0,0,0,0,0,2.8734,2.8781,2.8737,2.8726,2.8645,2.8616,2.8605,2.852,2.847,2.8487,2.8423,2.8352,2.8305,2.8273,2.8264,2.8301,2.8258,2.8265,2.8272,2.8399,2.8421,2.8439,0,0,0,0,0,0,2.888,2.8767,2.8717,2.8736,2.8687,2.8591,2.861,2.8546,2.851,2.8499,2.8395,2.8377,2.8388,2.8344,2.8311,2.8343,2.827,2.8276,2.837,2.839,2.8407,2.8416,2.8198,0,0,0,0,0,2.8915,2.8901,2.8803,2.8828,2.8806,2.8713,2.8697,2.8636,2.8581,2.8559,2.8495,2.8444,2.8417,2.8402,2.8372,2.84,2.8378,2.8421,2.8438,2.8452,2.8458,2.8467,2.8484,2.83,2.83,2.8299,0,0,2.8985,2.8922,2.8919,2.8856,2.8811,2.8797,2.8696,2.8687,2.8676,2.8557,2.8552,2.8504,2.844,2.8454,2.8456,2.8418,2.8504,2.8461,2.8473,2.8471,2.8476,2.8494,2.8509,2.8305,2.8304,2.8303,0,0,2.9107,2.9059,2.9073,2.903,2.8962,2.89,2.8904,2.8817,2.8781,2.8774,2.8684,2.8669,2.8626,2.8583,2.8555,2.866,2.8592,2.8653,2.8739,2.8749,2.8764,2.8776,2.8811,2.8825,2.866,2.866,2.866,0,2.9203,2.918,2.9089,2.9085,2.9059,2.8951,2.8964,2.8927,2.8853,2.8837,2.8795,2.8737,2.8686,2.8687,2.8712,2.8695,2.8694,2.8662,2.8769,2.878,2.8791,2.8822,2.8836,2.8668,2.8667,2.8666,2.8665,0,2.93,2.9286,2.9306,2.9237,2.9213,2.9218,2.9127,2.9114,2.9055,2.8997,2.899,2.8926,2.888,2.8876,2.8819,2.8868,2.8846,2.8789,2.8713,2.8817,2.8845,2.8857,2.8679,2.8676,2.8674,2.8672,0,0,2.9508,2.9389,2.9398,2.9364,2.9282,2.9268,2.9268,2.9222,2.9212,2.9165,2.9161,2.9126,2.9071,2.9041,2.8977,2.8987,2.9071,2.8927,2.8924,2.8954,2.9118,2.916,2.9176,2.9026,2.9028,2.9029,2.9122,0,2.9613,2.9605,2.9524,2.9539,2.9523,2.942,2.9419,2.9368,2.9314,2.9292,2.9231,2.9207,2.9139,2.9119,2.9124,2.906,2.9102,2.9052,2.9019,2.9019,2.9036,2.9191,2.9236,2.9327,2.9133,2.9135,2.9136,0,2.9734,2.9694,2.9708,2.9623,2.9613,2.9614,2.9565,2.9546,2.9485,2.9445,2.941,2.9338,2.933,2.9262,2.9248,2.9216,2.9198,2.9165,2.9166,2.9157,2.9082,2.9185,2.9354,2.9367,2.9153,2.9152,2.9151,0,2.9881,2.9831,2.9831,2.9806,2.9709,2.9711,2.967,2.9607,2.9584,2.9541,2.9525,2.9483,2.9459,2.9427,2.9345,2.9303,2.934,2.9265,2.9305,2.9307,2.9315,2.9315,2.9482,2.9309,2.9308,2.9308,2.9308,0,3.0005,3.0017,2.9896,2.9896,2.9906,2.9812,2.9824,2.9773,2.9717,2.9705,2.9614,2.9604,2.9498,2.9476,2.9413,2.9409,2.94,2.9366,2.9348,2.9372,2.9377,2.9357,2.9348,2.9312,2.9311,2.931,2.931,0,3.017,3.009,3.0084,2.9992,2.9969,2.998,2.99,2.9896,2.9836,2.9822,2.9813,2.9719,2.9688,2.9604,2.9552,2.9509,2.9523,2.9492,2.9543,2.9532,2.9575,2.9571,2.9732,2.9748,2.9568,2.957,2.9572,0,3.0253,3.026,3.0168,3.0154,3.0117,3.0095,3.0071,2.9978,2.9957,2.9888,2.9892,2.9854,2.9818,2.9774,2.97,2.9659,2.9625,2.9684,2.9618,2.9641,2.9622,2.9622,2.9621,2.9698,2.9701,2.9703,2.9704,0,3.0408,3.0368,3.0337,3.0293,3.0268,3.0228,3.0184,3.0177,3.0073,3.0054,3.0021,2.9994,2.994,2.9902,2.985,2.9806,2.9738,2.9726,2.9732,2.9756,2.9784,2.9767,2.958,2.9722,2.972,2.9719,2.9718,2.9717,3.0532,3.0532,3.0467,3.0436,3.0393,3.0353,3.0344,3.0283,3.0255,3.0203,3.0151,3.0123,3.0061,2.9983,2.9945,2.9921,2.9885,2.9895,2.9897,2.99,2.991,2.9791,2.9911,2.9911,2.991,2.991,2.9909,0,3.0679,3.0633,3.0605,3.0545,3.0521,3.0459,3.0407,3.0389,3.0366,3.0314,3.0281,3.0243,3.0206,3.013,3.0085,3.0081,3.0048,3.0072,3.007,3.0061,2.9946,2.9944,3.0099,3.0099,3.0099,3.0099,3.0099,3.0099,3.0753,3.0749,3.0702,3.0675,3.0627,3.06,3.0575,3.0537,3.0495,3.0456,3.0425,3.0376,3.0313,3.0263,3.0226,3.0205,3.0191,3.0225,3.0194,3.0087,3.0069,3.0052,3.0049,3.0224,3.0224,3.0309,3.031,3.0311]}]]